Weather History for Port Aransas, TX

Change the Weather History Date:

Saturday, October 13, 2012

  Actual Average (KCRP) Record (KCRP)
Temperature  
Mean Temperature 82 °F 75 °F  
Max Temperature 86 °F 85 °F 93 °F (1991)
Min Temperature 78 °F 66 °F 46 °F (1977)
Degree Days  
Heating Degree Days 0 0  
Month to date heating degree days 0  
Since 1 July heating degree days 0  
Cooling Degree Days 17 11  
Month to date cooling degree days 154  
Year to date cooling degree days 3197  
Growing Degree Days 32 (Base 50)    
Moisture  
Dew Point 73 °F    
Average Humidity 78    
Maximum Humidity 84    
Minimum Humidity 70    
Precipitation  
Precipitation 0.00 in 0.12 in 2.18 in (1997)
Month to date precipitation 1.56  
Year to date precipitation 25.88  
Snow  
Snow 0.00 in - - ()
Month to date snowfall  
Since 1 July snowfall  
Since 1 September snowfall  
Snow Depth -    
Sea Level Pressure  
Sea Level Pressure 30.02 in    
Wind  
Wind Speed 15 mph (SSE)    
Max Wind Speed 22 mph    
Max Gust Speed 29 mph    
Visibility 8 miles    
Events      
T = Trace of Precipitation, MM = Missing Value Source: NWS Daily Summary

Daily Weather History Graph

Daily Weather History Graph

Search for Another Location

Airport:

Trip Planner

Search our weather history database for the weather conditions in past years. The results will help you decide how hot, cold, wet, or windy it might be!

Date:

Astronomy

Oct. 13, 2012 Rise Set
Actual Time 7:27 AM CDT 7:00 PM CDT
Civil Twilight 7:04 AM CDT 7:24 PM CDT
Nautical Twilight 6:36 AM CDT 7:51 PM CDT
Astronomical Twilight 6:09 AM CDT 8:18 PM CDT
Moon 5:26 AM CDT (10/13) 5:40 PM CDT (10/13)
Length of Visible Light 12h 20m
Length of Day
11h 32m
Waning Crescent, 5% of the Moon is Illuminated
Oct 13
Waning Crescent
Oct 15
New
Oct 21
First Quarter
Oct 29
Full
Nov 6
Last Quarter

Hourly Weather History & Observations

Time (CDT) Temp. Heat Index Dew Point Humidity Pressure Visibility Wind Dir Wind Speed Gust Speed Precip Events Conditions
12:55 AM 78.8 °F - 73.4 °F 83% 30.09 in 10.0 mi SE 12.7 mph 18.4 mph N/A   Clear
1:15 AM 78.8 °F - 73.4 °F 83% 30.09 in 10.0 mi SE 11.5 mph - N/A   Clear
1:35 AM 78.8 °F - 71.6 °F 78% 30.09 in 10.0 mi SE 12.7 mph - N/A   Clear
1:55 AM 78.8 °F - 71.6 °F 78% 30.08 in 10.0 mi SE 17.3 mph 21.9 mph N/A   Clear
2:15 AM 78.8 °F - 73.4 °F 83% 30.08 in 10.0 mi SE 12.7 mph 20.7 mph N/A   Scattered Clouds
2:35 AM 78.8 °F - 71.6 °F 78% 30.08 in 10.0 mi SSE 16.1 mph 20.7 mph N/A   Scattered Clouds
2:55 AM 78.8 °F - 71.6 °F 78% 30.07 in 10.0 mi SSE 16.1 mph 23.0 mph N/A   Scattered Clouds
3:15 AM 78.8 °F - 71.6 °F 78% 30.07 in 10.0 mi SE 11.5 mph 19.6 mph N/A   Scattered Clouds
3:35 AM 78.8 °F - 71.6 °F 78% 30.06 in 10.0 mi SSE 16.1 mph - N/A   Scattered Clouds
3:55 AM 78.8 °F - 71.6 °F 78% 30.06 in 10.0 mi SSE 16.1 mph 20.7 mph N/A   Scattered Clouds
4:15 AM 78.8 °F - 71.6 °F 78% 30.05 in 10.0 mi SSE 15.0 mph 21.9 mph N/A   Scattered Clouds
4:35 AM 78.8 °F - 71.6 °F 78% 30.05 in 10.0 mi SSE 13.8 mph 19.6 mph N/A   Clear
4:55 AM 78.8 °F - 71.6 °F 78% 30.04 in 10.0 mi SE 13.8 mph 19.6 mph N/A   Clear
5:15 AM 78.8 °F - 71.6 °F 78% 30.05 in 10.0 mi SSE 11.5 mph 20.7 mph N/A   Clear
5:35 AM 78.8 °F - 69.8 °F 74% 30.05 in 10.0 mi SSE 16.1 mph 20.7 mph N/A   Scattered Clouds
5:55 AM 78.8 °F - 71.6 °F 78% 30.05 in 10.0 mi SSE 12.7 mph 18.4 mph N/A   Clear
6:15 AM 78.8 °F - 71.6 °F 78% 30.05 in 10.0 mi SSE 15.0 mph 19.6 mph N/A   Clear
6:35 AM 78.8 °F - 71.6 °F 78% 30.06 in 10.0 mi SSE 13.8 mph 19.6 mph N/A   Clear
6:55 AM 78.8 °F - 71.6 °F 78% 30.05 in 10.0 mi SSE 13.8 mph 21.9 mph N/A   Clear
7:15 AM 78.8 °F - 71.6 °F 78% 30.05 in 10.0 mi SSE 12.7 mph 19.6 mph N/A   Clear
7:35 AM 78.8 °F - 73.4 °F 83% 30.05 in 7.0 mi SSE 13.8 mph 18.4 mph N/A   Clear
7:55 AM 78.8 °F - 73.4 °F 83% 30.05 in 7.0 mi SSE 11.5 mph 18.4 mph N/A   Clear
8:15 AM 78.8 °F - 71.6 °F 78% 30.05 in 10.0 mi SSE 15.0 mph 19.6 mph N/A   Clear
8:55 AM 80.6 °F 85.4 °F 73.4 °F 79% 30.05 in 7.0 mi SSE 13.8 mph 21.9 mph N/A   Clear
9:35 AM 80.6 °F 86.2 °F 75.2 °F 84% 30.06 in 7.0 mi SSE 13.8 mph 18.4 mph N/A   Scattered Clouds
9:55 AM 82.4 °F 89.5 °F 75.2 °F 79% 30.06 in 7.0 mi SSE 11.5 mph - N/A   Clear
10:15 AM 82.4 °F 89.5 °F 75.2 °F 79% 30.07 in 7.0 mi SSE 12.7 mph 20.7 mph N/A   Clear
10:35 AM 82.4 °F 89.5 °F 75.2 °F 79% 30.07 in 7.0 mi SSE 15.0 mph 18.4 mph N/A   Mostly Cloudy
10:55 AM 82.4 °F 90.9 °F 77.0 °F 84% 30.06 in 7.0 mi SSE 13.8 mph 19.6 mph N/A   Overcast
11:15 AM 82.4 °F 90.9 °F 77.0 °F 84% 30.06 in 7.0 mi SSE 12.7 mph 20.7 mph N/A   Overcast
11:35 AM 82.4 °F 89.5 °F 75.2 °F 79% 30.06 in 7.0 mi SSE 15.0 mph 19.6 mph N/A   Overcast
11:55 AM 82.4 °F 89.5 °F 75.2 °F 79% 30.06 in 7.0 mi SSE 15.0 mph 18.4 mph N/A   Mostly Cloudy
12:15 PM 84.2 °F 92.3 °F 75.2 °F 74% 30.05 in 7.0 mi SSE 19.6 mph 24.2 mph N/A   Scattered Clouds
12:35 PM 84.2 °F 92.3 °F 75.2 °F 74% 30.04 in 7.0 mi SSE 16.1 mph 24.2 mph N/A   Scattered Clouds
1:15 PM 84.2 °F 90.9 °F 73.4 °F 70% 30.03 in 7.0 mi SSE 16.1 mph 24.2 mph N/A   Mostly Cloudy
1:35 PM 86.0 °F 95.1 °F 75.2 °F 70% 30.02 in 7.0 mi SSE 13.8 mph 21.9 mph N/A   Overcast
1:55 PM 84.2 °F 92.3 °F 75.2 °F 74% 30.01 in 7.0 mi SSE 17.3 mph 24.2 mph N/A   Overcast
2:15 PM 84.2 °F 92.3 °F 75.2 °F 74% 30.00 in 7.0 mi SSE 19.6 mph 25.3 mph N/A   Mostly Cloudy
2:35 PM 84.2 °F 90.9 °F 73.4 °F 70% 29.99 in 7.0 mi SSE 17.3 mph - N/A   Scattered Clouds
2:55 PM 84.2 °F 90.9 °F 73.4 °F 70% 29.98 in 7.0 mi SSE 19.6 mph 25.3 mph N/A   Scattered Clouds
3:35 PM 84.2 °F 90.9 °F 73.4 °F 70% 29.98 in 10.0 mi SSE 17.3 mph 24.2 mph N/A   Clear
3:55 PM 84.2 °F 90.9 °F 73.4 °F 70% 29.97 in 7.0 mi South 13.8 mph 23.0 mph N/A   Clear
4:15 PM 82.4 °F 88.2 °F 73.4 °F 74% 29.96 in 7.0 mi SSE 19.6 mph 23.0 mph N/A   Clear
4:35 PM 82.4 °F 88.2 °F 73.4 °F 74% 29.96 in 7.0 mi SSE 15.0 mph 20.7 mph N/A   Clear
4:55 PM 82.4 °F 88.2 °F 73.4 °F 74% 29.96 in 7.0 mi SSE 17.3 mph 21.9 mph N/A   Clear
5:15 PM 82.4 °F 89.5 °F 75.2 °F 79% 29.95 in 7.0 mi SSE 13.8 mph 21.9 mph N/A   Clear
5:35 PM 82.4 °F 88.2 °F 73.4 °F 74% 29.95 in 7.0 mi SSE 17.3 mph 23.0 mph N/A   Clear
5:55 PM 80.6 °F 85.4 °F 73.4 °F 79% 29.94 in 7.0 mi SSE 16.1 mph 24.2 mph N/A   Clear
6:15 PM 80.6 °F 85.4 °F 73.4 °F 79% 29.95 in 7.0 mi SSE 16.1 mph 23.0 mph N/A   Clear
6:35 PM 80.6 °F 85.4 °F 73.4 °F 79% 29.94 in 7.0 mi SSE 16.1 mph 20.7 mph N/A   Clear
6:55 PM 80.6 °F 85.4 °F 73.4 °F 79% 29.94 in 7.0 mi SSE 17.3 mph 23.0 mph N/A   Scattered Clouds
7:35 PM 80.6 °F 85.4 °F 73.4 °F 79% 29.95 in 10.0 mi SSE 19.6 mph 24.2 mph N/A   Clear
7:55 PM 80.6 °F 84.6 °F 71.6 °F 74% 29.95 in 10.0 mi SSE 21.9 mph 28.8 mph N/A   Clear
8:35 PM 80.6 °F 85.4 °F 73.4 °F 79% 29.98 in 10.0 mi SSE 15.0 mph 21.9 mph N/A   Clear
9:15 PM 80.6 °F 84.6 °F 71.6 °F 74% 29.99 in 10.0 mi SSE 16.1 mph 23.0 mph N/A   Clear
9:35 PM 80.6 °F 85.4 °F 73.4 °F 79% 29.99 in 10.0 mi SSE 19.6 mph 23.0 mph N/A   Clear
9:55 PM 80.6 °F 85.4 °F 73.4 °F 79% 29.99 in 10.0 mi SSE 17.3 mph 21.9 mph N/A   Clear
10:15 PM 80.6 °F 84.6 °F 71.6 °F 74% 29.99 in 10.0 mi SSE 16.1 mph 25.3 mph N/A   Clear
11:15 PM 78.8 °F - 73.4 °F 83% 29.99 in 10.0 mi SSE 17.3 mph 23.0 mph N/A   Clear
11:35 PM 78.8 °F - 73.4 °F 83% 29.99 in 7.0 mi SSE 17.3 mph - N/A   Clear